Weather History for KROW - April, 2014

Change the Weather History Date:

Sunday, April 27, 2014

  Actual Average Record
Temperature  
Mean Temperature 63 °F 64 °F  
Max Temperature 74 °F 80 °F 98 °F (1996)
Min Temperature 52 °F 49 °F 31 °F (1920)
Degree Days  
Heating Degree Days 2 3  
Month to date heating degree days 128 155  
Since 1 July heating degree days 3212 3249  
Cooling Degree Days 0 2  
Month to date cooling degree days 44 29  
Year to date cooling degree days 45 32  
Growing Degree Days 13 (Base 50)    
Moisture  
Dew Point 19 °F    
Average Humidity 20    
Maximum Humidity 28    
Minimum Humidity 11    
Precipitation  
Precipitation 0.00 in 0.03 in 1.35 in (1897)
Month to date precipitation 0.11 0.53  
Year to date precipitation 0.41 1.84  
Sea Level Pressure  
Sea Level Pressure 29.50 in    
Wind  
Wind Speed 20 mph (WNW)    
Max Wind Speed 40 mph    
Max Gust Speed 51 mph    
Visibility 10 miles    
Events      
T = Trace of Precipitation, MM = Missing Value Source: NWS Daily Summary

Daily Weather History Graph

Daily Weather History Graph

Search for Another Location

Airport or City:

Trip Planner

Search our weather history database for the weather conditions in past years. The results will help you decide how hot, cold, wet, or windy it might be!

Date:

Astronomy

Apr. 27, 2014 Rise Set
Actual Time 6:14 AM MDT 7:37 PM MDT
Civil Twilight 5:48 AM MDT 8:04 PM MDT
Nautical Twilight 5:16 AM MDT 8:35 PM MDT
Astronomical Twilight 4:44 AM MDT 9:08 PM MDT
Moon 5:10 AM MDT (4/27) 6:18 PM MDT (4/27)
Length of Visible Light 14h 16m
Length of Day
13h 23m
Waning Crescent, 3% of the Moon is Illuminated
Apr 27
Waning Crescent
Apr 29
New
May 6
First Quarter
May 14
Full
May 21
Last Quarter

Hourly Weather History & Observations

Time (MDT) Temp. Dew Point Humidity Pressure Visibility Wind Dir Wind Speed Gust Speed Precip Events Conditions
12:51 AM 63.0 °F 28.9 °F 28% 29.47 in 10.0 mi WNW 18.4 mph 27.6 mph N/A   Widespread Dust
2:51 AM 55.0 °F 21.0 °F 27% 29.50 in 10.0 mi North 8.1 mph - N/A   Widespread Dust
3:51 AM 54.0 °F 19.9 °F 26% 29.50 in 10.0 mi West 8.1 mph - N/A   Widespread Dust
5:51 AM 53.1 °F 19.9 °F 27% 29.50 in 10.0 mi West 10.4 mph - N/A   Widespread Dust
7:51 AM 57.9 °F 18.0 °F 21% 29.50 in 10.0 mi WSW 20.7 mph - N/A   Clear
8:51 AM 61.0 °F 19.0 °F 20% 29.49 in 10.0 mi West 21.9 mph 33.4 mph N/A   Clear
9:51 AM 64.0 °F 19.9 °F 18% 29.49 in 10.0 mi WSW 15.0 mph 24.2 mph N/A   Clear
10:51 AM 66.0 °F 19.0 °F 17% 29.49 in 10.0 mi West 19.6 mph 34.5 mph N/A   Clear
11:51 AM 69.1 °F 19.0 °F 15% 29.49 in 10.0 mi West 19.6 mph 34.5 mph N/A   Clear
12:51 PM 70.0 °F 19.9 °F 15% 29.47 in 10.0 mi WNW 29.9 mph 42.6 mph N/A   Clear
1:47 PM 71.6 °F 19.4 °F 14% 29.61 in 8.0 mi West 27.6 mph 43.7 mph N/A   Partly Cloudy
1:51 PM 72.0 °F 19.9 °F 14% 29.45 in 8.0 mi West 32.2 mph 44.9 mph N/A   Partly Cloudy
2:26 PM 72.0 °F 18.0 °F 13% 29.59 in 10.0 mi WNW 31.1 mph 41.4 mph N/A   Partly Cloudy
2:51 PM 72.0 °F 18.0 °F 13% 29.46 in 7.0 mi West 31.1 mph 44.9 mph N/A   Partly Cloudy
3:51 PM 73.0 °F 17.1 °F 12% 29.44 in 6.0 mi West 35.7 mph 44.9 mph N/A   Haze
4:51 PM 73.0 °F 16.0 °F 11% 29.44 in 10.0 mi WNW 29.9 mph 41.4 mph N/A   Clear
5:51 PM 73.0 °F 16.0 °F 11% 29.44 in 10.0 mi West 28.8 mph 41.4 mph N/A   Clear
6:51 PM 71.1 °F 15.1 °F 12% 29.44 in 10.0 mi WNW 26.5 mph 39.1 mph N/A   Clear
7:51 PM 68.0 °F 15.1 °F 13% 29.47 in 10.0 mi WNW 21.9 mph 38.0 mph N/A   Clear
10:51 PM 64.0 °F 18.0 °F 17% 29.58 in 10.0 mi NW 16.1 mph 25.3 mph N/A   Clear
11:51 PM 60.1 °F 18.0 °F 20% 29.60 in 10.0 mi WNW 12.7 mph - N/A   Clear